Stations météo

Publicité
Avord, France (7257): Température de l'air & dewpoint: 18.01.2019 12:00:00 - 24.01.2019 12:00:00 (CET)Avord, France (7257): Température de l'air 5cm: 18.01.2019 12:00:00 - 24.01.2019 12:00:00 (CET)Avord, France (7257): Température de l'air -20cm & Température de l'air -100cm: 18.01.2019 12:00:00 - 24.01.2019 12:00:00 (CET)Avord, France (7257): Vitesse du vent & gusts: 18.01.2019 12:00:00 - 24.01.2019 12:00:00 (CET)Avord, France (7257): Direction du vent: 18.01.2019 12:00:00 - 24.01.2019 12:00:00 (CET)Avord, France (7257): reduced air pressure: 18.01.2019 12:00:00 - 24.01.2019 12:00:00 (CET)Avord, France (7257): visibility: 18.01.2019 12:00:00 - 24.01.2019 12:00:00 (CET)Avord, France (7257): Quantités de précipitations: 18.01.2019 12:00:00 - 24.01.2019 12:00:00 (CET)
Date & Time tt [°C] td [°C] tt 5cm [°C] tt -20cm [°C] tt -100cm [°C] ff [km/h] ff [knt] fx [km/h] fx [knt] dd ppp [hPa] vv [km] rr [mm]
24.01.2019 12:00:00 -0,6 -3,1 - - - 13 7 21 11 NNE 1014,0 11 0,0
24.01.2019 11:00:00 -0,9 -3,1 -0,8 3,1 7,7 11 6 25 13 N 1013,4 11 0,0
24.01.2019 10:00:00 -1,3 -2,6 -1,6 3,1 7,7 10 6 21 11 NNW 1012,9 10 0,0
24.01.2019 09:00:00 -1,8 -2,8 -1,7 3,1 7,8 10 5 23 12 N 1012,4 10 0,0
24.01.2019 08:00:00 -1,6 -2,9 -1,5 3,2 7,8 12 6 21 12 NNE 1011,5 12 0,0
24.01.2019 07:00:00 -1,2 -2,6 -1,9 3,1 7,8 16 8 23 13 N 1010,7 14 0,0
24.01.2019 06:00:00 -0,6 -1,7 -1,1 3,1 7,8 11 6 19 11 NW 1010,0 8 0,0
24.01.2019 05:00:00 -0,3 -1,6 -0,6 3,2 7,8 13 7 22 12 NW 1009,6 8 0,0
24.01.2019 04:00:00 -0,1 -1,4 -0,5 3,2 7,8 15 8 27 14 NNW 1009,2 8 0,0
24.01.2019 03:00:00 0,3 -1,0 0,1 3,1 7,8 17 9 24 13 NNW 1008,8 8 0,0
24.01.2019 02:00:00 0,5 -0,8 0,1 3,1 7,8 13 7 19 11 NW 1007,7 11 0,0
24.01.2019 01:00:00 0,4 -0,9 0,1 3,2 7,8 10 5 17 9 NW 1007,1 12 0,0
24.01.2019 00:00:00 0,6 -1,0 0,0 3,1 7,8 11 6 22 12 NNW 1006,1 14 0,0
23.01.2019 23:00:00 0,7 -1,4 0,1 3,1 7,8 15 8 26 14 N 1005,2 49 0,0
23.01.2019 22:00:00 0,7 -0,8 0,2 3,1 7,8 16 9 30 16 N 1004,3 28 0,0
23.01.2019 21:00:00 0,6 -0,3 0,3 3,1 7,8 11 6 30 16 NNW 1003,4 20 0,0
23.01.2019 20:00:00 0,7 -0,5 0,3 3,1 7,8 19 11 32 17 NNW 1002,4 20 0,0
23.01.2019 19:00:00 0,6 -0,1 0,3 3,1 7,9 21 12 34 18 NNW 1001,4 9 0,0
23.01.2019 18:00:00 0,7 -0,2 0,2 3,1 7,9 20 11 31 17 NNW 1000,2 57 0,0
23.01.2019 17:00:00 0,7 0,1 0,2 3,1 7,9 21 11 31 17 WNW 999,2 4,5 0,0
23.01.2019 16:00:00 0,9 0,0 0,2 3,1 7,9 19 11 42 23 NW 998,8 5 0,2
23.01.2019 15:00:00 2,6 -1,0 2,7 3,1 7,9 24 13 41 22 NW 998,2 55 0,0
23.01.2019 14:00:00 2,8 -0,1 2,9 3,1 7,9 21 12 35 19 NW 998,3 60 0,0
23.01.2019 13:00:00 2,6 0,5 2,9 3,2 7,9 15 8 27 14 WNW 998,2 60 0,0
23.01.2019 12:00:00 2,1 0,9 1,9 3,2 7,9 13 7 25 13 WNW 998,2 59 0,0
23.01.2019 11:00:00 1,4 0,7 1,2 3,2 7,9 16 8 27 15 NW 997,9 60 0,0
23.01.2019 10:00:00 1,1 1,0 0,5 3,2 7,9 14 8 23 12 WNW 997,4 20 0,0
23.01.2019 09:00:00 0,7 0,6 -0,1 3,2 7,9 9 5 15 8 WNW 997,2 60 0,0
23.01.2019 08:00:00 1,0 0,7 0,5 3,2 7,9 10 5 16 9 WNW 996,8 60 0,2
23.01.2019 07:00:00 1,2 1,1 0,5 3,2 7,9 13 7 19 10 NW 996,4 15 0,0
23.01.2019 06:00:00 0,8 0,8 0,2 3,2 7,9 8 4 11 6 W 996,8 7 0,0
23.01.2019 05:00:00 1,3 1,2 0,5 3,3 8,0 7 4 22 12 WNW 997,1 13 1,6
23.01.2019 04:00:00 1,4 1,4 0,8 3,3 8,0 9 5 21 11 SW 997,7 3,2 0,4
23.01.2019 03:00:00 1,2 1,2 0,1 3,3 8,0 14 8 21 11 SSW 998,2 10 0,4
23.01.2019 02:00:00 0,6 0,5 0,1 3,3 8,0 11 6 19 10 SSW 999,5 3,5 1,6
23.01.2019 01:00:00 0,9 0,6 0,2 3,3 8,0 13 7 22 12 SSW 1000,5 2,9 1,0
23.01.2019 00:00:00 0,9 0,6 0,3 3,4 8,0 13 7 21 11 S 1001,5 8 0,2
22.01.2019 23:00:00 0,8 0,7 0,2 3,4 8,0 13 7 19 10 S 1002,6 11 0,0
22.01.2019 22:00:00 0,5 0,5 0,1 3,4 8,0 10 6 19 10 S 1003,8 4,9 0,0
22.01.2019 21:00:00 0,5 0,5 -0,1 3,4 8,0 12 7 19 10 SSW 1005,1 1,1 0,0
22.01.2019 20:00:00 0,6 0,6 0,2 3,4 8,0 7 4 14 7 WSW 1005,7 1,3 0,0
22.01.2019 19:00:00 0,4 0,4 0,1 3,5 8,0 8 4 18 10 W 1006,1 2,6 0,0
22.01.2019 18:00:00 0,2 0,2 0,1 3,5 8,0 13 7 19 10 W 1006,1 4,1 0,0
22.01.2019 17:00:00 0,3 0,2 0,1 3,6 8,0 10 5 13 7 SW 1005,9 2,4 0,2
22.01.2019 16:00:00 0,3 0,2 0,1 3,6 8,0 9 5 12 6 SSW 1006,5 1,3 0,6
22.01.2019 15:00:00 0,5 0,2 0,1 3,6 8,0 6 4 13 7 SSW 1007,0 0,9 1,6
22.01.2019 14:00:00 0,3 0,0 0,1 3,7 8,0 9 5 21 11 S 1007,4 1,1 0,8
22.01.2019 13:00:00 0,4 -0,7 0,3 3,7 8,0 14 8 24 13 S 1008,5 4,2 0,6
22.01.2019 12:00:00 0,3 -1,3 -0,2 3,8 8,0 16 9 27 14 S 1009,8 8 0,0
22.01.2019 11:00:00 -0,3 -2,4 -0,6 3,8 8,0 16 9 28 15 SSE 1010,9 13 0,0
22.01.2019 10:00:00 -0,9 -2,5 -1,7 3,9 8,0 18 10 26 14 SSE 1011,8 10 0,0
22.01.2019 09:00:00 -1,7 -2,8 -2,6 4,0 8,0 15 8 22 12 S 1013,0 8 0,0
22.01.2019 08:00:00 -2,6 -3,3 -4,1 4,0 8,0 11 6 20 11 S 1013,9 5 0,0
22.01.2019 07:00:00 -2,8 -3,3 -5,1 4,1 8,0 11 6 16 9 SSW 1014,7 3,8 0,0
22.01.2019 06:00:00 -3,9 -4,6 -6,1 4,1 8,0 8 5 13 7 SSW 1016,0 4,2 0,0
22.01.2019 05:00:00 -4,1 -4,8 -7,0 4,2 8,0 8 5 11 6 S 1017,0 3,8 0,0
22.01.2019 04:00:00 -4,2 -4,9 -8,0 4,3 8,0 8 5 13 7 S 1017,8 3,5 0,0
22.01.2019 03:00:00 -4,4 -5,1 -8,5 4,3 8,1 6 3 8 5 S 1019,0 3,8 0,0
22.01.2019 02:00:00 -4,3 -5,0 -8,6 4,4 8,0 3 2 4 2 SSE 1019,7 4,1 0,0
22.01.2019 01:00:00 -3,9 -4,9 -7,7 4,4 8,1 4 2 9 5 S 1020,7 5 0,0
22.01.2019 00:00:00 -3,5 -4,6 -8,2 4,5 8,1 6 3 8 4 S 1021,2 5 0,0
21.01.2019 23:00:00 -3,8 -4,9 -7,6 4,5 8,1 0 0 4 2 N 1021,9 5 0,0
21.01.2019 22:00:00 -3,4 -5,0 -6,1 4,5 8,1 4 2 6 3 W 1022,5 6 0,0
21.01.2019 21:00:00 -1,2 -4,2 -3,7 4,5 8,1 6 3 12 7 ESE 1022,4 11 0,0
21.01.2019 20:00:00 -1,2 -3,9 -1,9 4,6 8,1 5 3 9 5 S 1022,8 11 0,0
21.01.2019 19:00:00 -1,2 -3,4 -1,4 4,6 8,1 5 3 10 5 WSW 1022,8 11 0,0
21.01.2019 18:00:00 -1,2 -3,6 -2,2 4,6 8,1 0 0 10 5 N 1022,8 11 0,0
21.01.2019 17:00:00 -0,7 -4,1 -1,2 4,6 8,1 2 1 14 8 NNE 1022,6 12 0,0
21.01.2019 16:00:00 -0,2 -3,2 0,8 4,6 8,1 8 4 13 7 NNE 1022,7 11 0,0
21.01.2019 15:00:00 -0,1 -3,1 0,8 4,6 8,1 3 2 15 8 NNW 1023,1 11 0,0
21.01.2019 14:00:00 -0,4 -2,6 0,7 4,7 8,1 11 6 20 11 NNW 1023,3 8 0,0
21.01.2019 13:00:00 -0,2 -2,3 0,9 4,7 8,1 10 5 17 9 N 1023,4 8 0,0
21.01.2019 12:00:00 -0,4 -1,5 0,3 4,7 8,1 8 4 19 10 NNW 1023,7 5 0,0
21.01.2019 11:00:00 -0,6 -1,6 -0,6 4,8 8,1 6 4 12 7 NNW 1023,9 5 0,0
21.01.2019 10:00:00 -0,7 -1,7 -3,3 4,8 8,1 6 3 11 6 NNE 1023,2 5 0,0
21.01.2019 09:00:00 -1,4 -2,2 -3,9 4,9 8,1 4 2 12 6 NW 1022,8 4,4 0,0
21.01.2019 08:00:00 -1,0 -2,1 -2,5 4,9 8,1 10 5 24 13 N 1022,3 5 0,0
21.01.2019 07:00:00 0,5 -0,6 0,4 4,9 8,1 14 8 24 13 NNE 1021,7 8 0,0
21.01.2019 06:00:00 1,6 0,7 1,5 4,9 8,2 12 7 22 12 NNE 1021,2 3,9 0,0
21.01.2019 05:00:00 1,8 0,9 1,7 4,9 8,2 16 9 23 12 NNE 1020,9 3,6 0,0
21.01.2019 04:00:00 2,1 1,5 2,1 4,9 8,2 11 6 18 10 N 1020,7 4,1 0,0
21.01.2019 03:00:00 2,3 1,9 2,3 4,9 8,2 14 8 19 10 N 1020,5 3,5 0,0
21.01.2019 02:00:00 2,6 2,2 2,5 4,9 8,2 11 6 18 10 N 1020,2 5 0,0
21.01.2019 01:00:00 2,7 2,3 2,6 4,9 8,2 14 7 24 13 NNE 1020,0 4,8 0,0
21.01.2019 00:00:00 3,0 2,3 2,8 4,9 8,2 13 7 22 12 N 1019,7 9 -
20.01.2019 23:00:00 3,1 2,4 2,9 4,8 8,2 14 7 25 13 N 1019,1 10 0,0
20.01.2019 22:00:00 3,5 2,6 3,2 4,8 8,2 15 8 25 14 NNE 1018,4 19 0,0
20.01.2019 21:00:00 3,9 3,2 3,3 4,7 8,2 16 8 22 12 NNE 1017,5 17 0,0
20.01.2019 20:00:00 4,0 3,3 3,5 4,7 8,2 15 8 22 12 NNE 1016,8 31 0,0
20.01.2019 19:00:00 4,6 3,6 4,2 4,6 8,2 14 8 23 13 NNE 1016,2 27 0,0
20.01.2019 18:00:00 4,9 3,7 4,4 4,5 8,2 16 8 22 12 NNE 1015,4 20 0,0
20.01.2019 17:00:00 5,2 4,6 5,0 4,4 8,2 5 3 7 4 N 1014,5 52 0,0
20.01.2019 16:00:00 5,5 4,5 5,4 4,3 8,2 4 2 7 4 NNW 1013,8 52 0,0
20.01.2019 15:00:00 5,6 4,4 6,4 4,2 8,2 2 1 10 5 NNE 1013,5 60 0,0
20.01.2019 14:00:00 5,0 4,3 5,1 4,2 8,3 8 4 16 9 NE 1013,4 35 0,6
20.01.2019 13:00:00 5,4 4,7 6,0 4,1 8,3 8 4 11 6 N 1013,3 14 0,0
20.01.2019 12:00:00 5,4 5,1 6,0 4,0 8,3 7 4 12 6 NNW 1013,2 3,9 0,0
20.01.2019 11:00:00 5,3 5,3 5,1 4,0 8,3 6 3 11 6 WNW 1012,8 8 0,6
20.01.2019 10:00:00 4,8 4,8 4,5 4,0 8,3 7 4 11 6 W 1012,2 2,7 0,0
20.01.2019 09:00:00 4,3 4,3 3,6 3,9 8,3 5 3 7 4 SW 1011,5 2,3 0,4
20.01.2019 08:00:00 3,6 3,6 3,4 3,9 8,3 0 0 5 3 N 1011,0 4,4 0,0
20.01.2019 07:00:00 3,3 3,3 3,0 3,9 8,3 4 2 6 3 ESE 1010,4 3,6 0,0
20.01.2019 06:00:00 2,9 2,9 2,9 3,8 8,3 4 2 7 4 E 1010,3 2,7 0,2
20.01.2019 05:00:00 3,0 2,9 2,9 3,8 8,3 4 2 8 4 ENE 1010,4 2,7 0,4
20.01.2019 04:00:00 3,2 2,9 3,0 3,8 8,3 5 3 8 4 ESE 1010,3 8 0,0
20.01.2019 03:00:00 3,4 2,8 3,0 3,8 8,3 4 2 12 7 SE 1010,4 10 0,4
20.01.2019 02:00:00 3,6 2,9 2,7 3,7 8,3 9 5 15 8 SSE 1010,1 20 0,0
20.01.2019 01:00:00 3,0 2,6 1,9 3,7 8,4 7 4 11 6 SE 1010,4 14 0,0
20.01.2019 00:00:00 2,5 2,2 1,8 3,7 8,4 5 3 8 5 E 1010,4 9 0,0
19.01.2019 23:00:00 2,5 2,2 1,4 3,7 8,4 5 3 11 6 ESE 1010,4 10 0,0
19.01.2019 22:00:00 2,7 2,3 2,0 3,7 8,4 7 4 13 7 ESE 1010,4 10 0,0
19.01.2019 21:00:00 2,9 2,3 2,5 3,7 8,4 6 3 15 8 SE 1010,4 10 0,4
19.01.2019 20:00:00 3,0 1,7 2,4 3,7 8,4 11 6 19 11 SSE 1010,5 15 0,0
19.01.2019 19:00:00 2,7 1,5 2,3 3,7 8,4 13 7 18 10 SE 1010,3 20 0,0
19.01.2019 18:00:00 2,5 1,3 2,3 3,8 8,4 12 7 19 10 SE 1010,2 21 0,0
19.01.2019 17:00:00 2,5 1,5 2,4 3,8 8,4 12 7 16 9 SE 1010,4 24 0,0
19.01.2019 16:00:00 2,7 1,4 2,5 3,9 8,4 13 7 23 12 SE 1010,7 25 0,0
19.01.2019 15:00:00 2,9 1,9 3,0 3,9 8,4 15 8 21 12 SE 1011,0 15 0,0
19.01.2019 14:00:00 1,8 1,2 2,8 3,9 8,4 7 4 13 7 ESE 1011,8 13 0,0
19.01.2019 13:00:00 1,0 0,7 1,0 4,0 8,4 7 4 16 9 ESE 1012,7 10 0,0
19.01.2019 12:00:00 0,5 0,1 0,1 4,1 8,4 11 6 16 9 ESE 1013,2 8 0,2
19.01.2019 11:00:00 -0,1 -0,7 0,1 4,2 8,4 12 7 19 10 ESE 1013,8 4,0 0,8
19.01.2019 10:00:00 -0,6 -1,4 -1,5 4,2 8,4 12 7 21 11 SE 1013,8 7 0,8
19.01.2019 09:00:00 -1,7 -2,8 -3,0 4,3 8,4 16 9 23 12 SE 1013,9 14 0,0
19.01.2019 08:00:00 -2,8 -3,6 -5,1 4,3 8,4 16 9 21 12 ESE 1014,1 12 0,0
19.01.2019 07:00:00 -3,4 -4,4 -5,3 4,4 8,4 11 6 21 11 ESE 1014,4 12 0,0
19.01.2019 06:00:00 -2,8 -3,8 -5,3 4,5 8,4 13 7 18 10 ESE 1014,7 12 0,0
19.01.2019 05:00:00 -3,0 -4,0 -6,0 4,5 8,4 8 4 15 8 SE 1015,4 13 0,0
19.01.2019 04:00:00 -3,0 -4,1 -5,6 4,6 8,4 13 7 19 10 ESE 1015,6 15 0,0
19.01.2019 03:00:00 -2,5 -3,9 -5,7 4,7 8,5 13 7 20 11 SE 1016,2 17 0,0
19.01.2019 02:00:00 -1,6 -3,2 -4,6 4,7 8,4 13 7 25 14 SE 1016,4 19 0,0
19.01.2019 01:00:00 -1,3 -3,0 -6,0 4,8 8,4 13 7 21 12 SE 1016,8 20 0,0
19.01.2019 00:00:00 -2,6 -3,9 -7,3 4,8 8,4 12 7 16 9 ESE 1017,5 25 0,0
18.01.2019 23:00:00 -3,0 -4,4 -7,3 4,9 8,4 9 5 13 7 ESE 1017,5 19 0,0
18.01.2019 22:00:00 -2,3 -3,7 -7,5 4,9 8,4 10 5 13 7 ESE 1017,8 33 0,0
18.01.2019 21:00:00 -1,4 -3,6 -6,9 5,0 8,4 9 5 14 7 ESE 1017,7 49 0,0
18.01.2019 20:00:00 -1,3 -3,5 -6,5 5,0 8,4 10 5 13 7 E 1018,2 51 0,0
18.01.2019 19:00:00 -0,5 -2,7 -5,5 5,0 8,4 8 5 11 6 E 1018,2 60 0,0
18.01.2019 18:00:00 0,8 -2,1 -3,4 5,0 8,5 8 4 11 6 ESE 1018,4 60 0,0
18.01.2019 17:00:00 2,7 -2,0 5,8 5,0 8,4 8 5 15 8 ESE 1018,6 60 0,0
18.01.2019 16:00:00 3,8 -1,0 9,0 5,0 8,4 10 5 17 9 E 1018,6 50 0,0
18.01.2019 15:00:00 3,8 -0,8 5,5 5,0 8,5 13 7 22 12 SSE 1019,0 39 0,0
18.01.2019 14:00:00 2,4 -0,5 3,6 5,1 8,4 11 6 18 10 SE 1019,4 47 0,0
18.01.2019 13:00:00 2,3 -0,5 5,0 5,2 8,4 14 7 21 11 ESE 1020,1 38 0,0
18.01.2019 12:00:00 1,3 -0,5 0,1 5,2 8,4 14 7 19 11 ESE 1020,8 19 0,0

tt = Température de l'air
td = dewpoint
tt 5cm = Température de l'air 5cm
tt -20cm = Température de l'air -20cm
tt -100cm = Température de l'air -100cm
ff = Vitesse du vent
fx = gusts
dd = Direction du vent
ppp = reduced air pressure
vv = visibility
rr = Quantités de précipitations

stations d'obs. à proximité